TimePDT,TemperatureF,Dew PointF,Humidity,Sea Level PressureIn,VisibilityMPH,Wind Direction,Wind SpeedMPH,Gust SpeedMPH,PrecipitationIn,Events,Conditions,WindDirDegrees,DateUTC
12:53 AM,45.0,30.0,56,29.82,10.0,WNW,6.9,-,N/A,,Clear,290,2013-05-06 07:53:00
1:53 AM,48.0,28.9,48,29.81,10.0,WNW,5.8,-,N/A,,Clear,290,2013-05-06 08:53:00
2:53 AM,45.0,28.9,53,29.80,10.0,WNW,6.9,-,N/A,,Clear,290,2013-05-06 09:53:00
3:53 AM,44.1,28.9,55,29.81,10.0,West,9.2,-,N/A,,Clear,280,2013-05-06 10:53:00
4:53 AM,41.0,28.9,62,29.83,10.0,WSW,6.9,-,N/A,,Mostly Cloudy,250,2013-05-06 11:53:00
5:53 AM,41.0,28.0,60,29.83,10.0,West,5.8,-,N/A,,Partly Cloudy,260,2013-05-06 12:53:00
6:53 AM,50.0,30.9,48,29.83,10.0,West,3.5,-,N/A,,Clear,270,2013-05-06 13:53:00
7:53 AM,61.0,32.0,34,29.82,10.0,Variable,3.5,-,N/A,,Mostly Cloudy,0,2013-05-06 14:53:00
8:53 AM,66.9,32.0,27,29.82,10.0,NE,12.7,-,N/A,,Scattered Clouds,40,2013-05-06 15:53:00
9:53 AM,68.0,32.0,26,29.83,10.0,NE,18.4,23.0,N/A,,Scattered Clouds,40,2013-05-06 16:53:00
10:53 AM,72.0,33.1,24,29.81,10.0,NE,13.8,23.0,N/A,,Clear,50,2013-05-06 17:53:00
11:53 AM,73.9,33.1,22,29.79,10.0,NE,15.0,21.9,N/A,,Clear,50,2013-05-06 18:53:00
12:53 PM,75.9,32.0,20,29.78,10.0,NE,15.0,21.9,N/A,,Clear,40,2013-05-06 19:53:00
1:53 PM,73.9,30.0,20,29.76,10.0,ENE,12.7,23.0,N/A,,Partly Cloudy,60,2013-05-06 20:53:00
2:53 PM,75.9,30.0,19,29.75,10.0,NE,17.3,27.6,N/A,,Partly Cloudy,50,2013-05-06 21:53:00
3:53 PM,78.1,30.0,17,29.72,10.0,NE,12.7,23.0,N/A,,Clear,40,2013-05-06 22:53:00
4:53 PM,77.0,28.9,17,29.72,10.0,NNE,12.7,23.0,N/A,,Partly Cloudy,30,2013-05-06 23:53:00
5:53 PM,72.0,30.9,22,29.74,10.0,NNE,15.0,-,N/A,,Scattered Clouds,20,2013-05-07 00:53:00
6:53 PM,64.9,37.9,37,29.76,10.0,SE,15.0,28.8,N/A,,Scattered Clouds,140,2013-05-07 01:53:00
7:53 PM,66.0,33.1,29,29.74,10.0,Variable,4.6,-,0.00,Rain,Light Rain,0,2013-05-07 02:53:00
8:53 PM,60.1,39.0,46,29.76,10.0,NNW,6.9,-,0.00,,Mostly Cloudy,330,2013-05-07 03:53:00
9:53 PM,55.9,36.0,47,29.79,10.0,ENE,6.9,-,N/A,,Clear,70,2013-05-07 04:53:00
10:53 PM,51.1,36.0,56,29.78,10.0,NNW,9.2,-,N/A,,Clear,340,2013-05-07 05:53:00
11:53 PM,52.0,37.0,57,29.80,10.0,SSE,5.8,-,N/A,,Overcast,150,2013-05-07 06:53:00